Simultaneous Nadir Overpasses (SNOs) Predictions

Prediction of SNOs between GOES-14 and NOAA-20 Satellite Orbit:

Table of predicted SNOs for the next 14.0 days since TLE Epoch: 12/3/2022
Index Date Time (GOES-14) GOES-14 Lat,Lon NOAA-20 Lat,Lon Distance(km) Time Diff (sec)
1 12/03/2022 08:26:12 -0.03,-104.36 0.09,-104.99 72.11 80
2 12/04/2022 08:04:46 -0.01,-104.35 -0.86,-100.45 444.27 80
3 12/05/2022 20:26:40 0.03,-104.03 -0.35,-105.74 194.24 80
4 12/06/2022 20:10:34 0.02,-104.04 0.66,-101.20 323.86 80
5 12/08/2022 08:32:23 -0.04,-104.38 0.42,-106.49 239.84 80
6 12/09/2022 08:10:56 -0.02,-104.37 -0.54,-101.94 276.51 80
7 12/10/2022 20:32:50 0.04,-104.03 -0.67,-107.23 365.06 80
8 12/11/2022 20:16:45 0.03,-104.03 0.35,-102.70 152.84 80
9 12/13/2022 08:38:33 -0.05,-104.40 0.72,-107.98 408.07 80
10 12/14/2022 08:17:07 -0.04,-104.39 -0.24,-103.44 108.56 80
11 12/16/2022 20:20:15 0.05,-104.04 0.00,-104.18 17.03 80
